OEAH

Details ICAO OEAH (HOF)
Name AL AHSA
Region Saudi Arabia
Timezone Asia/Riyadh (UTC+3.0)
Plans Departing 13
Arriving 14
Stats Elevation 588 ft / 179 m (AMSL)
Location 25.285305° 49.485189°
Runways 1
Magnetic Variation 2.762° E
Sunrise 2018-05-25 01:54:48 UTC / 2018-05-25 04:54:48 Local
Sunset 2018-05-25 15:26:02 UTC / 2018-05-25 18:26:02 Local
Advertisement - Login to hide

Runways

ID Width Length Bearing (true) Bearing (mag) Surface Threshold Offset Overrun Length
16 148 ft / 45 m 10,077 ft / 3,072 m 165.02° 162.26° Asphalt 0 ft / 0 m 396 ft / 121 m
34 148 ft / 45 m 10,077 ft / 3,072 m 345.02° 342.26° Asphalt 0 ft / 0 m 396 ft / 121 m

Approach Navaids

Runway Type Ident Frequency Range Bearing (true) Bearing (mag) Slope Elevation
34 Localiser IHSA 110.90 MHz 18 nm / 33 km 345.15° 342.39° - 588 ft / 179 m (AMSL)
34 Glidescope IHSA 110.90 MHz 10 nm / 19 km 345.02° 342.26° 3.00° 588 ft / 179 m (AMSL)
34 DME IHSA 110.90 MHz 18 nm / 33 km - - - 588 ft / 179 m (AMSL)

Map

Weather


0- 5 10 15 20 25 30 35+ Temperature / ° C

Clouds and Precipitation
Forecast for 2018-05-25 12:00 UTC. Updated 4 hours ago

Ground ~20,000 ft ~40,000 ft Winds

METAR

OEAH 251400Z 10009KT CAVOK 41/02 Q1003 NOSIG

TAF

TAF OEAH 251100Z 2512/2618 12014KT 7000 NSC TEMPO 2512/2518 3500 DU BECMG 2520/2522 VRB03KT

Frequencies

Unicom 122.80 MHz CTAF
Warning: Do not use this data for real-world aviation or navigation. No guarantee of current accuracy is given.